Location: Augustenthal
(51.7167°N, 10.2833°E)
Time: 01:13:44
(UTC+00:00)

ALOS 2 - Visible Passes

Search period start: 20 September 2021 00:00
Search period end: 30 September 2021 00:00
Orbit: 630 x 632 km, 97.9° (Epoch: 19 September)

Date Brightness Start Highest point End Pass type
(mag) Time Alt. Az. Time Alt. Az. Time Alt. Az.
20 Sep 5.1 21:36:14 16° NNE 21:36:14 16° NNE 21:37:23 10° N visible
20 Sep 5.5 23:13:38 13° NNW 23:13:38 13° NNW 23:14:08 10° NNW visible
21 Sep 5.2 21:57:13 17° N 21:57:13 17° N 21:58:18 10° N visible
22 Sep 5.4 22:18:12 16° N 22:18:12 16° N 22:19:07 10° N visible
23 Sep 5.4 21:01:47 11° NNE 21:01:47 11° NNE 21:02:03 10° NNE visible
23 Sep 5.5 22:39:11 14° NNW 22:39:11 14° NNW 22:39:50 10° NNW visible
24 Sep 5.4 21:22:46 12° NNE 21:22:46 12° NNE 21:23:20 10° NNE visible
24 Sep 5.7 23:00:09 12° NNW 23:00:09 12° NNW 23:00:27 10° NNW visible
25 Sep 5.4 21:43:44 13° N 21:43:44 13° N 21:44:22 10° N visible
26 Sep 5.5 22:04:43 13° N 22:04:43 13° N 22:05:16 10° N visible
27 Sep 5.7 22:25:42 12° N 22:25:42 12° N 22:26:02 10° N visible
28 Sep 5.8 22:46:40 10° NNW 22:46:40 10° NNW 22:46:43 10° NNW visible
29 Sep 5.6 21:30:15 11° N 21:30:15 11° N 21:30:22 10° N visible
